X  Close Light rain later this morning and breezy until this evening.
Conditions Temperature Feels Precipitation Wind Wind Direction UV index Pressure
7:00 rain Light Rain 47° 40° - 15-24 mph NW NW - 1008,37
8:00 rain Light Rain 48° 42° - 17-30 mph NW NW uv-1 1008,91
9:00 wind Breezy 49° 43° - 19-33 mph NW NW uv-2 1009,41
10:00 wind Breezy 51° - 20-33 mph NW NW uv-3 1009,63
11:00 wind Breezy 52° - 21-32 mph NW NW uv-5 1009,83
12:00 wind Breezy 53° - 22-33 mph NW NW uv-6 1010,05
1:00 wind Breezy 55° - 22-33 mph NW NW uv-6 1010,19
2:00 wind Breezy 56° - 22-32 mph NW NW uv-5 1010,38
3:00 wind Breezy 57° - 22-31 mph NW NW uv-4 1010,77
4:00 wind Breezy 58° - 21-29 mph NW NW uv-3 1011,10
5:00 wind Breezy 57° - 19-28 mph NW NW uv-2 1011,56
6:00 clear-day Clear 56° - 17-27 mph NW NW uv-1 1012,00
7:00 clear-day Clear 54° - 14-23 mph NW NW - 1012,50
8:00 clear-night Clear 51° - 11-18 mph NW NW - 1013,03
9:00 clear-night Clear 49° 45° - 9-16 mph NW NW - 1013,72
10:00 clear-night Clear 46° 42° - 7-12 mph NNW NNW - 1014,36
11:00 clear-night Clear 44° 41° - 6-9 mph NNW NNW - 1014,82
12:00 clear-night Clear 42° 39° - 5-6 mph NW NW - 1015,35
1:00 clear-night Clear 41° 38° - 5-5 mph NNW NNW - 1015,65
2:00 clear-night Clear 39° 36° - 4-4 mph North North - 1015,70
3:00 clear-night Clear 37° - 4-4 mph North North - 1015,73
4:00 clear-night Clear 36° 33° - 4-5 mph NE NE - 1015,54
5:00 clear-night Clear 35° 31° - 4-8 mph NE NE - 1015,49
6:00 partly-cloudy-day Mostly Cloudy 35° 31° - 5-13 mph ENE ENE - 1015,59
7:00 partly-cloudy-day Mostly Cloudy 37° 32° - 6-16 mph East East - 1015,47
8:00 partly-cloudy-day Mostly Cloudy 38° 33° - 8-17 mph East East uv-1 1015,39
9:00 partly-cloudy-day Mostly Cloudy 39° 33° - 9-17 mph East East uv-2 1015,18
10:00 cloudy Overcast 40° 34° - 9-17 mph East East uv-3 1015,01
11:00 snow Possible Light Snow 39° 33° - 9-17 mph East East uv-3 1014,75
12:00 snow Snow 37° 30° - 9-17 mph East East uv-3 1014,45
1:00 snow Snow 36° 28° - 10-18 mph East East uv-3 1014,11
2:00 snow Snow 35° 26° - 12-21 mph East East uv-3 1013,25
3:00 snow Snow 34° 25° - 13-25 mph ENE ENE uv-3 1012,48
4:00 snow Snow 33° 23° - 15-29 mph ENE ENE uv-2 1011,76
5:00 snow Snow and Breezy 32° 21° - 17-32 mph NE NE uv-1 1011,49
6:00 snow Snow and Breezy 32° 20° - 18-34 mph NE NE uv-1 1011,47
7:00 snow Heavy Snow and Breezy 32° 20° - 19-34 mph NE NE - 1011,93
8:00 snow Snow and Breezy 32° 21° - 18-34 mph NE NE - 1012,39
9:00 snow Snow 33° 22° - 17-32 mph NE NE - 1013,07
10:00 snow Snow 32° 22° - 16-29 mph NNE NNE - 1013,90
11:00 snow Possible Light Snow 32° 22° - 14-24 mph NNE NNE - 1014,70
12:00 partly-cloudy-night Mostly Cloudy 31° 21° - 12-18 mph NNE NNE - 1015,50
1:00 clear-night Clear 30° 20° - 11-13 mph North North - 1016,50
2:00 clear-night Clear 29° 19° - 10-11 mph North North - 1017,45
3:00 clear-night Clear 28° 18° - 10-11 mph North North - 1018,37
4:00 clear-night Clear 26° 17° - 9-10 mph North North - 1019,30
5:00 clear-night Clear 25° 16° - 8-9 mph North North - 1020,40
6:00 clear-day Clear 24° 15° - 7-7 mph North North - 1021,65
7:00 clear-day Clear 25° 17° - 6-6 mph North North - 1022,59